TimeEDT,TemperatureF,Dew PointF,Humidity,Sea Level PressureIn,VisibilityMPH,Wind Direction,Wind SpeedMPH,Gust SpeedMPH,PrecipitationIn,Events,Conditions,WindDirDegrees,DateUTC
12:15 AM,70.9,68.9,93,29.74,7.0,Calm,Calm,-,N/A,,Overcast,0,2013-09-22 04:15:00
12:35 AM,70.9,68.9,93,29.74,5.0,Calm,Calm,-,N/A,Rain,Light Rain,0,2013-09-22 04:35:00
12:55 AM,70.7,68.9,94,29.74,7.0,Calm,Calm,-,0.01,,Drizzle,0,2013-09-22 04:55:00
1:15 AM,70.7,68.9,94,29.74,7.0,Calm,Calm,-,N/A,Rain,Light Rain,0,2013-09-22 05:15:00
1:35 AM,70.7,68.9,94,29.74,7.0,Calm,Calm,-,0.02,Rain,Light Rain,0,2013-09-22 05:35:00
1:55 AM,70.9,68.9,93,29.74,7.0,Calm,Calm,-,0.03,Rain,Light Rain,0,2013-09-22 05:55:00
2:15 AM,70.7,68.9,94,29.74,3.0,SSW,5.8,-,0.09,Rain,Rain,210,2013-09-22 06:15:00
2:35 AM,70.9,68.9,93,29.74,7.0,Calm,Calm,-,0.13,Rain,Rain,0,2013-09-22 06:35:00
2:55 AM,70.9,68.9,93,29.74,5.0,Calm,Calm,-,0.19,Rain,Heavy Rain,0,2013-09-22 06:55:00
3:15 AM,70.7,68.5,93,29.73,7.0,Calm,Calm,-,0.05,Rain,Rain,0,2013-09-22 07:15:00
3:35 AM,70.5,68.0,92,29.74,7.0,NW,3.5,-,0.10,Rain,Rain,320,2013-09-22 07:35:00
3:55 AM,69.1,66.9,93,29.73,10.0,Calm,Calm,-,0.12,Rain,Light Rain,0,2013-09-22 07:55:00
4:15 AM,68.4,66.4,93,29.73,7.0,Calm,Calm,-,0.04,Rain,Rain,0,2013-09-22 08:15:00
4:35 AM,68.2,66.4,94,29.72,7.0,Calm,Calm,-,0.07,Rain,Light Rain,0,2013-09-22 08:35:00
4:55 AM,68.0,66.2,94,29.73,10.0,NNW,3.5,-,0.08,Rain,Light Rain,330,2013-09-22 08:55:00
5:15 AM,67.6,65.8,94,29.73,10.0,Calm,Calm,-,0.01,Rain,Light Rain,0,2013-09-22 09:15:00
5:35 AM,67.3,65.3,93,29.73,10.0,Calm,Calm,-,0.03,Rain,Light Rain,0,2013-09-22 09:35:00
5:55 AM,67.1,65.3,94,29.73,10.0,Calm,Calm,-,0.03,,Overcast,0,2013-09-22 09:55:00
6:15 AM,67.1,65.3,94,29.72,10.0,Calm,Calm,-,N/A,,Overcast,0,2013-09-22 10:15:00
6:35 AM,67.1,65.3,94,29.73,7.0,Calm,Calm,-,0.01,Rain,Light Rain,0,2013-09-22 10:35:00
6:55 AM,67.1,65.3,94,29.73,7.0,NNE,5.8,-,0.04,Rain,Light Rain,20,2013-09-22 10:55:00
7:15 AM,67.1,65.1,93,29.74,10.0,NE,6.9,-,N/A,Rain,Light Rain,40,2013-09-22 11:15:00
7:35 AM,67.1,64.9,93,29.75,7.0,Calm,Calm,-,0.02,Rain,Rain,0,2013-09-22 11:35:00
7:55 AM,67.1,64.8,92,29.76,10.0,NNE,4.6,-,0.05,Rain,Rain,30,2013-09-22 11:55:00
8:15 AM,66.9,64.9,93,29.76,10.0,NE,6.9,-,N/A,,Light Drizzle,40,2013-09-22 12:15:00
8:35 AM,66.9,64.9,93,29.76,7.0,North,12.7,16.1,N/A,Rain,Rain,10,2013-09-22 12:35:00
8:55 AM,65.8,62.6,89,29.77,10.0,NNE,11.5,-,0.01,,Overcast,20,2013-09-22 12:55:00
9:15 AM,65.3,61.9,89,29.78,10.0,NNE,11.5,16.1,N/A,,Overcast,30,2013-09-22 13:15:00
9:35 AM,65.5,61.9,88,29.78,10.0,NNE,9.2,-,N/A,,Overcast,30,2013-09-22 13:35:00
9:55 AM,66.7,62.6,86,29.79,10.0,NE,8.1,-,N/A,,Overcast,40,2013-09-22 13:55:00
10:15 AM,67.3,62.6,85,29.79,10.0,NNE,11.5,19.6,N/A,,Overcast,30,2013-09-22 14:15:00
10:35 AM,68.2,62.2,81,29.79,10.0,NNE,10.4,19.6,N/A,,Overcast,30,2013-09-22 14:35:00
10:55 AM,69.4,61.9,77,29.79,10.0,NNE,12.7,23.0,N/A,,Mostly Cloudy,30,2013-09-22 14:55:00
11:15 AM,70.3,61.7,74,29.79,10.0,NE,12.7,19.6,N/A,,Mostly Cloudy,50,2013-09-22 15:15:00
11:35 AM,70.2,61.7,74,29.79,10.0,NNE,15.0,18.4,N/A,,Overcast,30,2013-09-22 15:35:00
11:55 AM,70.2,61.3,74,29.79,10.0,NE,11.5,18.4,N/A,,Overcast,40,2013-09-22 15:55:00
12:15 PM,70.9,61.5,72,29.79,10.0,NNE,11.5,19.6,N/A,,Overcast,30,2013-09-22 16:15:00
12:35 PM,71.4,61.9,72,29.79,10.0,NNE,10.4,-,N/A,,Overcast,30,2013-09-22 16:35:00
12:55 PM,72.1,61.3,69,29.79,10.0,NE,10.4,-,N/A,,Overcast,40,2013-09-22 16:55:00
1:15 PM,74.3,62.1,65,29.78,10.0,NE,10.4,16.1,N/A,,Overcast,50,2013-09-22 17:15:00
1:35 PM,74.5,61.9,65,29.78,10.0,NNE,9.2,16.1,N/A,,Overcast,30,2013-09-22 17:35:00
1:55 PM,75.9,61.9,62,29.78,10.0,NE,12.7,-,N/A,,Overcast,40,2013-09-22 17:55:00
2:15 PM,76.1,61.3,60,29.77,10.0,NNE,11.5,18.4,N/A,,Overcast,30,2013-09-22 18:15:00
2:35 PM,75.6,61.7,62,29.77,10.0,NNE,8.1,-,N/A,,Overcast,30,2013-09-22 18:35:00
2:55 PM,74.5,61.3,63,29.77,10.0,NNE,5.8,16.1,N/A,,Overcast,20,2013-09-22 18:55:00
3:15 PM,74.8,61.2,62,29.76,10.0,NNE,10.4,-,N/A,,Overcast,20,2013-09-22 19:15:00
3:35 PM,76.1,60.4,58,29.76,10.0,NNE,12.7,16.1,N/A,,Overcast,30,2013-09-22 19:35:00
3:55 PM,76.3,59.9,57,29.76,10.0,NNE,8.1,-,N/A,,Overcast,20,2013-09-22 19:55:00
4:15 PM,76.1,59.4,56,29.77,10.0,North,9.2,16.1,N/A,,Overcast,10,2013-09-22 20:15:00
4:35 PM,76.1,58.8,55,29.77,10.0,North,6.9,-,N/A,,Overcast,10,2013-09-22 20:35:00
4:55 PM,76.3,58.1,53,29.77,10.0,North,6.9,-,N/A,,Mostly Cloudy,10,2013-09-22 20:55:00
5:15 PM,76.6,58.6,54,29.77,10.0,North,11.5,-,N/A,,Mostly Cloudy,10,2013-09-22 21:15:00
5:35 PM,74.7,58.8,58,29.78,10.0,NNE,8.1,-,N/A,,Overcast,20,2013-09-22 21:35:00
5:55 PM,74.1,58.6,58,29.79,10.0,North,6.9,-,N/A,,Overcast,10,2013-09-22 21:55:00
6:15 PM,74.1,58.8,59,29.79,10.0,NNE,5.8,-,N/A,,Overcast,20,2013-09-22 22:15:00
6:35 PM,73.9,59.0,59,29.80,10.0,NNE,4.6,-,N/A,,Mostly Cloudy,30,2013-09-22 22:35:00
6:55 PM,71.8,59.0,64,29.80,10.0,North,4.6,-,N/A,,Scattered Clouds,10,2013-09-22 22:55:00
7:15 PM,69.8,59.2,69,29.81,10.0,NNE,3.5,-,N/A,,Clear,20,2013-09-22 23:15:00
7:35 PM,67.3,60.4,79,29.82,10.0,Calm,Calm,-,N/A,,Clear,0,2013-09-22 23:35:00
7:55 PM,64.8,60.4,86,29.82,10.0,Calm,Calm,-,N/A,,Clear,0,2013-09-22 23:55:00
8:15 PM,63.5,60.4,90,29.83,7.0,North,3.5,-,N/A,,Clear,350,2013-09-23 00:15:00
8:35 PM,64.4,60.1,86,29.84,10.0,North,3.5,-,N/A,,Clear,10,2013-09-23 00:35:00
8:55 PM,65.1,59.4,82,29.84,10.0,North,3.5,-,N/A,,Clear,10,2013-09-23 00:55:00
9:15 PM,65.1,58.8,80,29.85,10.0,NE,3.5,-,N/A,,Clear,50,2013-09-23 01:15:00
9:35 PM,63.9,58.6,83,29.86,10.0,Calm,Calm,-,N/A,,Clear,0,2013-09-23 01:35:00
9:55 PM,63.7,58.6,84,29.87,7.0,North,3.5,-,N/A,,Clear,350,2013-09-23 01:55:00
10:15 PM,63.1,58.5,85,29.87,10.0,Calm,Calm,-,N/A,,Clear,0,2013-09-23 02:15:00
10:35 PM,62.8,58.1,85,29.87,10.0,Calm,Calm,-,N/A,,Clear,0,2013-09-23 02:35:00
10:55 PM,62.1,57.6,85,29.88,10.0,Calm,Calm,-,N/A,,Clear,0,2013-09-23 02:55:00
11:15 PM,61.3,57.4,87,29.88,10.0,Calm,Calm,-,N/A,,Clear,0,2013-09-23 03:15:00
11:35 PM,60.3,57.0,89,29.89,10.0,Calm,Calm,-,N/A,,Clear,0,2013-09-23 03:35:00
11:55 PM,59.4,56.5,90,29.89,7.0,Calm,Calm,-,N/A,,Clear,0,2013-09-23 03:55:00